Flag for Canada Weather past 2 weeks in Calgary, Alberta, Canada

Now
28 °F

Passing clouds.


Feels Like: 22 °F
Forecast: 29 / 50 °F
Wind: 6 mph from Southwest

Location: Calgary International


UV Index: 3 (Moderate)

Visibility: 40 mi


Pressure: 29.97 "Hg

Humidity: 93%

Dew point: 27 °F

Location of CalgaryLocation

Historic Weather in Calgary

°F

Calgary temperature yesterday

Maximum temperature yesterday: 36 °F (at 9:00 PM)
Minimum temperature yesterday: 30 °F (at 4:00 AM)
Average temperature yesterday: 32 °F

Past Weeks' High & Low Weather Summary

 TemperatureHumidityPressure
High66 °F (Apr 8, 3:00 PM)100% (Apr 17, 2:00 AM)30.47 "Hg (Apr 17, 2:00 AM)
Low19 °F (Apr 13, 5:00 AM)11% (Apr 14, 12:00 PM)29.62 "Hg (Apr 9, 12:00 AM)
Average39 °F55%29.95 "Hg
* Reported Apr 4 6:00 AM — Apr 19 6:00 AM, Calgary, Weather by CustomWeather, © 2014

Note: Actual official high and low records may vary slightly from our data, if they occured in-between our weather recording intervals... More about our weather records

Advertising

Historic Weather Conditions — Data for Previous 24 hours

 ConditionsComfort  
Time TempWeatherWind HumidityBarometerVisibility
6:00 AM
Apr 19
30 °FPassing clouds.6 mph100%29.96 "Hg15 mi
5:00 AM30 °FPassing clouds.6 mph93%29.96 "Hg15 mi
4:00 AM32 °FPassing clouds.3 mph93%29.97 "Hg15 mi
3:00 AM32 °FPassing clouds.3 mph93%29.96 "Hg15 mi
2:00 AM32 °FPartly cloudy.5 mph87%29.97 "Hg15 mi
1:00 AM30 °FPassing clouds.2 mph86%29.96 "Hg15 mi
12:00 AM30 °FPartly cloudy.2 mph86%29.96 "Hg15 mi
11:00 PM
Apr 18
30 °FPassing clouds.10 mph86%29.95 "Hg15 mi
10:00 PM30 °FPassing clouds.3 mph93%29.93 "Hg15 mi
9:00 PM36 °FPartly sunny.13 mph81%29.89 "Hg15 mi
8:00 PM34 °FPartly sunny.10 mph87%29.87 "Hg10 mi
7:00 PM34 °FLight snow. More clouds than sun.14 mph87%29.85 "Hg10 mi
6:00 PM32 °FLight snow. Ice fog.13 mph93%29.83 "Hg5 mi
5:00 PM32 °FLight snow. Ice fog.16 mph93%29.80 "Hg1 mi
4:00 PM32 °FLight snow. Ice fog.17 mph93%29.77 "Hg1 mi
3:00 PM32 °FLight snow. Ice fog.13 mph93%29.75 "Hg1 mi
2:00 PM32 °FLight snow. Ice fog.13 mph93%29.73 "Hg1 mi
1:00 PM34 °FLight snow. Fog.12 mph93%29.71 "Hg4 mi
12:00 PM32 °FLight snow. Ice fog.8 mph93%29.70 "Hg3 mi
11:00 AM32 °FLight snow. Ice fog.13 mph93%29.67 "Hg1 mi
10:00 AM32 °FLight snow. Ice fog.15 mph100%29.67 "Hg2 mi
9:00 AM32 °FLight snow. Ice fog.14 mph100%29.67 "Hg1 mi
8:47 AM32 °FChilly.9 mph100%29.68 "Hg1 mi
8:00 AM32 °FIce fog.8 mph100%29.69 "Hg1 mi
7:00 AM32 °FChilly.10 mph93%29.67 "Hg1 mi
Weather by CustomWeather, © 2014

See weather overview